Погода в Коркодоне

Погода в Коркодоне : погода сейчас, прогноз погоды и архив. Всё, что Вы хотите узнать о погоде в Коркодоне!

Поиск расширенной информации на нашем сайте:

Другие новости

Новости СМИ2

Главная страница сайта

Новости сайта

03.07.2017

Напоминаем, что на нашем специализированном сайте Метеоцентр.Азия вы можете получить высокодетализированные автоматические прогнозы погоды по пунктам России, СНГ и мира в авиационном формате (включающие направление и скорость ветра, видимость, явления погоды, количество и форму облачности, нижнюю и верхнюю границу облачности).


Погода в Коркодоне - сегодня

Время (UTC), дата Ветер
(°,м/с) 
Видим.   Явления Облачность Т
(°С)
Тd
(°С)
f(%) Тe
(°С)
Pmin
(гПа)
dP
(гПа)
Po
(мм)
O2
(г/м3)
Тmin Tmax R s Состояние
почвы
06 21.05.18 180 (Ю) 20000 м    10/10 1000 м 
[Sc]
+12.2 -1.3 39 +13  1004.5  -0.6  745  287           
12 21.05.18 тихо ()   20000 м    10/10 1000 м 
[Sc]
+6.4 -1.7 56 +6  1004.5  -0.3  744  293           
15 21.05.18 тихо ()   20000 м    10/10 1000 м 
[Sc]
+3.4 -0.7 74 +3  1004.3  -0.3  744  296           
18 21.05.18 тихо ()   20000 м    10/10 1000 м 
[Sc]
+3.2 +0 79 +3  1004.5  0.1  744  296           
00 22.05.18 270 (З) 20000 м    9/6 1000 м верхняя 
[Sc|Ci fib]
+9.6 +2.6 62 +11  1004.4  -0.3  744  289           
03 22.05.18 270 (З) 20000 м    9/5 1000 м верхняя 
[Sc|Ci fib]
+9.2 +2.1 61 +9  1004.5  0.1  744  290           
06 22.05.18 270 (З) 20000 м    10/5 1000 м верхняя 
[Sc|Cs]
+8.8 +1.2 59 +9  1005.2  0.7  745  291           
12 22.05.18 270 (З) 20000 м    10/4 1000 м средняя, верхняя 
[Sc|Ac trans|Cs]
+3.1 -0.4 78 +2  1009  1.9  748  298           
15 22.05.18 320 (СЗ) 20000 м    10/4 1000 м средняя, верхняя 
[Sc|Ac trans|Cs]
+1 -0.7 88 -1  1010.3  1.2  748  301           
18 22.05.18 270 (З) 20000 м    6/4 1000 м средняя 
[Sc|Ac trans]
+0.9 -0.8 88 -1  1011.4  1.1  749  301           
00 23.05.18 270 (З) 20000 м    ясно 
+9.3 +0.4 54 +9  1010.7  0.6  749  292           
03 23.05.18 320 (СЗ) 20000 м    3/3 1000 м 
[Cu hum]
+13.1 +0.8 43 +13  1009.9  -0.6  749  288           
06 23.05.18 320 (СЗ) 20000 м    6/6 1000 м 
[Cu Sc]
+14 +0.6 40 +15  1009.8  -0.1  749  287           
12 23.05.18 050 (СВ) 20000 м    4/0 верхняя 
[Ci fib]
+8.4 -2.3 47 +8  1011.6  750  293           
15 23.05.18 320 (СЗ) 20000 м    ясно 
+0.2 -1.8 86 -1  1012.4  0.5  750  302           
18 23.05.18 270 (З) 20000 м    ясно 
-0.7 -1.4 95 1012.9  0.4  750  303           
00 24.05.18 270 (З) 20000 м    3/3 1000 м 
[Sc]
+11.5 -1 42 +13  1010.8  -1  749  290           
03 24.05.18 230 (ЮЗ) 20000 м    6/4 1000 м верхняя 
[Cu hum|Ci fib]
+14.7 +0.4 38 +16  1009.5  -1.3  748  286           
06 24.05.18 320 (СЗ) 20000 м    8/8 1000 м 
[Cu med, cong]
+15.2 +0.2 36 +16  1008.9  -0.6  748  285           
12 24.05.18 360 (С) 20000 м    3/3 1000 м средняя 
[Ac trans]
+8.4 -2.6 46 +8  1010.5  1.1  749  293           
15 24.05.18 тихо ()   20000 м    ясно 
+2.8 -3 66 +3  1011.7  0.9  750  299           
18 24.05.18 360 (С) 20000 м    3/0 средняя 
[Ac trans]
-0.4 -1.6 92 1012.5  0.7  750  303           
00 25.05.18 260 (З) 20000 м    3/0 верхняя 
[Ci fib]
+8.8 -5.1 37 +8  1011.9  -0.6  751  294           
03 25.05.18 300 (СЗ) 20000 м    6/0 средняя, верхняя 
[Ac trans|Ci fib]
+10.8 -5.4 32 +10  1011.2  -0.5  749  291           
06 25.05.18 260 (З) 20000 м    4/0 верхняя 
[Ci fib]
+11.2 -8.5 24 +10  1010.7  -0.5  749  291           
Время (UTC), дата Ветер
(°,м/с) 
Видим.   Явления Облачность Т
(°С)
Тd
(°С)
f(%) Тe
(°С)
Pmin
(гПа)
dP
(гПа)
Po
(мм)
O2
(г/м3)
Тmin Tmax R s Состояние
почвы

Для получения пояснительной информации подведите курсор к названию столбца.

ПОГОДА в Коркодоне - архив

Всё, что Вы хотите узнать о погоде в Коркодоне - удобно и подробно!

Выберите нужную дату (начиная с 1 января 2015* года) и нажмите кнопку "Найти".
Будут отображены архивные сводки погоды по пункту Коркодон, начиная с указанной даты.


Отображать данные в формате CSV (для использования в таблицах Excel)


Внимание! Наш архив погоды предназначен исключительно для личного некоммерческого использования в познавательных целях. Если Вам необходимы официальные справки о состоянии погоды (для производственных, юридических, коммерческих и т.п. целей), обращайтесь в органы Росгидромета.

*Примечание: данная дата относится к архиву по метеостанциям СССР (Россия, СНГ, Балтия).
Архив по метеостанциям Зарубежной Европы и Азии (кроме Китая) хранится 10 дней, по другим регионам земного шара (Китай, Африка, Америка, Австралия, Океания) - 1 день.

Коркодон - район местоположения метеостанции


Название, широта, долгота, высота метеостанции:
Коркодон 64.7°ш. 154.1°д. 101 м над ур. моря [Российская Федерация]

Дополнительная информация

В oтличие oт бoльшинства пoгoдных сайтoв мы публикуем пoдрoбную метеoинфoрмацию в детальнoм прoфессиoнальнoм фoрмате.

Характеристики температуры и влажнoсти вoздуха измеряются на высoте 2 м в тени вдали oт зданий и деревьев.
Скoрoсть ветра измеряется на высoте 10 м (на урoвне рoста челoвека скoрoсть ветра ниже в 1.5-2 раза). Если метеoстанция нахoдится в гoрoде или в лесу, тo скoрoсть ветра занижена на 2-4 м/с пo сравнению с oткрытым местoм. Скoрoсть ветра над акватoриями крупных рек и oзёр, а также на вершинах хoлмoв на 2-5 м/с выше, чем в oбычных услoвиях.
Атмoсфернoе давление в разных тoчках местнoсти мoжет значительнo oтличаться oт давления на метеoстанции, в зависимoсти oт услoвий рельефа (при пoдъёме на 10 м давление пoнижается примернo на 1 мм рт.ст.).